Location: Casilda
(33.0440°S, 61.1680°W)
Time: 17:03:44
(UTC-03:00)

ISS - Pass Details

Date: 21 May 2022
Orbit: 414 x 421 km, 51.6° (Epoch: 25 May)

Event Time Altitude Azimuth Distance (km) Brightness Sun altitude
Exits shadow 06:33:43 29° 305° (NW) 808 -2.7 -16.4°
Maximum altitude 06:35:19 76° 223° (SW) 441 -3.9 -16.1°
Drops below altitude 10° 06:38:43 10° 137° (SE) 1,521 -0.6 -15.4°
Sets 06:40:51 0° 135° (SE) 2,393 0.5 -15.0°
